# Land Stadt Wetter Temperatur Luftdruck Luftfeuchtigkeit Sichtweite Windgeschwindigkeit Windrichtung Ortszeit
1 ad Andorra la Vella Clouds 5 1013 58 0 3 218 02.08.2018 14:22
2 ae Dubai Clouds 28 1011 39 10000 5 210 02.08.2018 14:21
3 af Kabul Clouds 11 1021 66 10000 11 140 02.08.2018 14:21
4 ar Buenos Aires Clear 21 1010 56 10000 9 340 02.08.2018 14:22
5 ar Esquel Clear 11 1012 57 10000 21 260 02.08.2018 14:22
6 ar Ushuaia Rain 5 978 75 10000 28 230 02.08.2018 14:22
7 at Innsbruck Clear 3 1024 60 10000 2 0 02.08.2018 14:23
8 at Wien Clear 5 1027 48 10000 9 340 02.08.2018 14:22
9 au Alice Springs Clear 16 1021 51 10000 8 90 02.08.2018 14:21
10 au Darwin Rain 27 1010 94 10000 15 130 02.08.2018 14:22
11 au Perth Rain 17 1017 67 10000 15 80 02.08.2018 14:21
12 au Sydney Clouds 19 1014 45 10000 26 320 02.08.2018 14:22
13 bg Sofia Rain 3 1019 93 10000 9 150 02.08.2018 14:21
14 bg Warna Clouds 8 1021 68 10000 9 110 02.08.2018 14:21
15 bo La Paz Clouds 13 1034 47 10000 13 110 02.08.2018 14:22
16 bo Potisi Rain 8 1012 25 0 3 59 02.08.2018 14:22
17 br Manaus Clouds 28 1007 88 10000 2 80 02.08.2018 14:21
18 br Rio de Janeiro Clouds 24 1013 69 10000 13 210 02.08.2018 14:22
19 bs Nassau Clouds 24 1014 57 10000 11 30 02.08.2018 14:22
20 ca Montreal Clear 9 1016 61 14484 11 20 02.08.2018 14:22
21 cd Kisangani Rain 22 1010 87 0 3 187 02.08.2018 14:23
22 ch Andermatt Clouds 3 1022 49 0 13 90 02.08.2018 14:23
23 ch Bern Clear 5 1021 71 10000 2 0 02.08.2018 14:23
24 ck Avarua Rain 27 1009 83 10000 18 10 02.08.2018 14:22
25 cl Santiago Clouds 23 1009 40 10000 18 210 02.08.2018 14:23
26 cn Lhasa Snow 1 1020 19 0 2 143 02.08.2018 14:22
27 cn Peking Clouds 6 1029 74 10000 4 30 02.08.2018 14:23
28 cn Shanghai Clouds 9 1027 61 10000 22 30 02.08.2018 14:21
29 de Berlin Clear 4 1029 69 10000 2 0 02.08.2018 14:21
30 de Braunschweig Clouds 4 1027 56 10000 5 90 02.08.2018 14:21
31 de Bremen Clear 6 1027 56 10000 13 130 02.08.2018 14:22
32 de Dresden Clear 3 1028 60 10000 8 100 02.08.2018 14:22
33 de Emden Clear 6 1026 74 6000 5 140 02.08.2018 14:21
34 de Flensburg Clouds 3 1027 86 0 5 200 02.08.2018 14:21
35 de Frankfurt Clear 8 1024 64 10000 9 30 02.08.2018 14:22
36 de Freiburg Clear 6 1022 65 10000 17 270 02.08.2018 14:22
37 de Hamburg Clouds 4 1028 69 10000 5 120 02.08.2018 14:21
38 de Hannover Clouds 6 1027 52 10000 9 130 02.08.2018 14:21
39 de Helgoland Clouds 6 1026 78 10000 5 130 02.08.2018 14:22
40 de Hiddensee Clouds 3 1033 75 0 18 208 02.08.2018 14:21
41 de Kassel Clear 5 1026 83 6000 4 20 02.08.2018 14:21
42 de Köln Clear 7 1024 61 10000 5 110 02.08.2018 14:21
43 de Magdeburg Clear 3 1029 74 0 10 134 02.08.2018 14:22
44 de München Clear 4 1024 69 10000 5 80 02.08.2018 14:21
45 de Nürnberg Clear 5 1025 52 10000 13 80 02.08.2018 14:21
46 de Oberstdorf Clear 4 1022 80 10000 4 0 02.08.2018 14:21
47 de Stuttgart Clear 6 1023 60 10000 2 0 02.08.2018 14:22
48 de Torfhaus Clear 4 1027 53 0 10 90 02.08.2018 14:22
49 de Trier Clear 6 1023 49 10000 13 60 02.08.2018 14:21
50 do Santo Domingo Clouds 27 1011 69 10000 8 190 02.08.2018 14:21
51 ec San Cristobal Clouds 28 1005 83 10000 15 20 02.08.2018 14:22
52 eg Kairo Clouds 30 1007 11 6000 30 160 02.08.2018 14:22
53 es Barcelona Clouds 10 1021 81 10000 5 300 02.08.2018 14:22
54 es Las Palmas de Gran Canaria Clouds 20 1016 82 10000 9 10 02.08.2018 14:21
55 es Madrid Clouds 12 1016 62 10000 17 120 02.08.2018 14:23
56 es Palma de Mallorca Clear 10 1022 81 10000 8 330 02.08.2018 14:22
57 es Sevilla Clouds 13 1015 87 10000 5 30 02.08.2018 14:22
58 es Tarifa Clouds 15 1017 87 10000 31 80 02.08.2018 14:21
59 et Addis Abeba Clouds 15 1026 67 10000 8 200 02.08.2018 14:23
60 fi Helsinki Clear -1 1020 63 10000 15 260 02.08.2018 14:21
61 fi Rovaniemi Clouds -6 1009 53 10000 13 330 02.08.2018 14:21
62 fj Suva Rain 27 1009 82 0 7 116 02.08.2018 14:21
63 fr Bordeaux Clear 13 1015 47 10000 15 140 02.08.2018 14:21
64 fr Nizza Clear 11 1021 54 10000 15 350 02.08.2018 14:22
65 fr Paris Clear 9 1019 65 10000 11 80 02.08.2018 14:22
66 gb Glasgow Clouds 9 1013 76 10000 8 140 02.08.2018 14:21
67 gb London Clear 7 1019 75 10000 15 100 02.08.2018 14:22
68 gb Manchester Clouds 9 1017 57 10000 9 150 02.08.2018 14:21
69 gl Nuuk Clouds -4 1004 53 0 31 60 02.08.2018 14:22
70 gr Athen Rain 10 1006 93 8000 28 360 02.08.2018 14:22
71 id Jakarta Haze 26 1010 88 4000 8 200 02.08.2018 14:22
72 ie Dublin Clouds 9 1011 66 10000 28 160 02.08.2018 14:21
73 in Jagatsukh Clouds 4 1025 26 0 12 43 02.08.2018 14:22
74 in Mumbai Haze 27 1009 88 3000 5 310 02.08.2018 14:22
75 in Nagpur Haze 23 1012 83 3000 5 50 02.08.2018 14:21
76 iq Bagdad Clouds 15 1020 51 10000 8 310 02.08.2018 14:22
77 is Reykjavik Snow -5 1003 68 6000 28 50 02.08.2018 14:22
78 it Mailand Clear 10 1023 57 10000 4 0 02.08.2018 14:21
79 it Palermo Clouds 10 1004 74 0 15 348 02.08.2018 14:22
80 it Rom Clear 10 1018 40 10000 2 0 02.08.2018 14:23
81 jp Nagasaki Clouds 12 1019 62 10000 21 360 02.08.2018 14:21
82 jp Tokio Clouds 13 1010 81 10000 22 20 02.08.2018 14:22
83 ke Nairobi Clouds 17 1022 88 10000 11 80 02.08.2018 14:22
84 kr Seoul Clear 3 1023 34 10000 5 295 02.08.2018 14:21
85 ma Casablanca Clouds 15 1015 87 10000 4 40 02.08.2018 14:23
86 ma Marrakesch Clouds 18 1015 63 10000 5 20 02.08.2018 14:23
87 mg Antananarivo Clouds 16 1019 87 9000 13 110 02.08.2018 14:21
88 mn Ulaanbaatar Clouds -4 1022 62 10000 6 49 02.08.2018 14:23
89 mn Uliastai Clear -4 1025 41 0 7 120 02.08.2018 14:23
90 mv Male Clouds 29 1009 74 10000 15 80 02.08.2018 14:23
91 mx Mexiko Stadt Clouds 25 1021 33 11265 26 220 02.08.2018 14:21
92 mx Veracruz Clouds 31 1006 59 8047 15 90 02.08.2018 14:21
93 no Hammerfest Rain -5 1006 92 10000 26 260 02.08.2018 14:22
94 no Oslo Clouds 2 1022 74 10000 9 210 02.08.2018 14:23
95 nz Wellington Clouds 17 1027 55 10000 15 350 02.08.2018 14:23
96 pe Cusco Rain 11 1016 28 0 10 2 02.08.2018 14:23
97 pg Port Moresby Clouds 26 1011 83 10000 9 290 02.08.2018 14:21
98 ph Manila Clouds 25 1013 78 10000 5 70 02.08.2018 14:21
99 pt Lissabon Clouds 16 1012 82 10000 22 170 02.08.2018 14:22
100 qa Doha Clouds 24 1013 44 10000 13 330 02.08.2018 14:23
101 ru Amderma Clouds -7 998 97 0 21 235 02.08.2018 14:23
102 ru Anadyr Snow -15 1004 84 4700 29 330 02.08.2018 14:23
103 ru Jakutsk Clouds -2 1012 58 10000 25 280 02.08.2018 14:22
104 ru Moskau Clear 0 1020 83 10000 11 280 02.08.2018 14:22
105 ru Surgut Rain 3 1019 74 10000 18 180 02.08.2018 14:23
106 ru Werchojansk Snow -8 1006 93 0 10 145 02.08.2018 14:22
107 sa Riad Clear 23 1020 27 8000 8 90 02.08.2018 14:21
108 sb Honiara Clouds 30 1007 74 10000 15 270 02.08.2018 14:22
109 se Stockholm Clouds 1 1024 59 10000 9 250 02.08.2018 14:23
110 th Bangkok Clouds 29 1010 83 10000 11 110 02.08.2018 14:21
111 tr Alanya Clouds 17 1018 42 8000 18 97 02.08.2018 14:22
112 tr Ankara Clouds 9 1017 71 10000 9 100 02.08.2018 14:23
113 tr Istanbul Rain 9 1016 87 10000 26 20 02.08.2018 14:23
114 ua Kiew Clouds 3 1028 43 9000 7 260 02.08.2018 14:21
115 us Chicago Clouds 7 1020 70 16093 13 50 02.08.2018 14:23
116 us Death Valley Clear 16 1003 26 0 18 230 02.08.2018 14:22
117 us Denver Clouds 14 1011 17 16093 8 170 02.08.2018 14:21
118 us Fairbanks Rain 1 1011 100 2414 5 120 02.08.2018 14:23
119 us Honolulu Clouds 28 1015 58 16093 15 160 02.08.2018 14:22
120 us Las Vegas Clouds 24 1006 12 16093 24 190 02.08.2018 14:21
121 us Los Angeles Clouds 18 1011 52 16093 13 260 02.08.2018 14:22
122 us Miami Clouds 26 1013 54 16093 18 140 02.08.2018 14:23
123 us New York Clouds 12 1016 58 16093 8 230 02.08.2018 14:22
124 us Nome Mist 1 995 96 9656 28 170 02.08.2018 14:23
125 us Tucson Clear 28 1009 10 16093 18 240 02.08.2018 14:21
126 uy Montevideo Clear 19 1011 72 10000 10 11 02.08.2018 14:22
127 vn Hanoi Clouds 18 1018 77 10000 17 30 02.08.2018 14:21
128 za Kapstadt Fog 15 1012 100 300 8 340 02.08.2018 14:22